Location: Spring Creek
(38.2870°N, 100.2160°W)
Time: 21:13:00
(UTC+00:00)

Hubble Space Telescope - Visible Passes

Search period start: 24 January 2022 00:00
Search period end: 03 February 2022 00:00
Orbit: 535 x 538 km, 28.5° (Epoch: 24 January)

Date Brightness Start Highest point End Pass type
(mag) Time Alt. Az. Time Alt. Az. Time Alt. Az.
31 Jan 3.6 02:31:32 10° SSW 02:31:54 11° SSW 02:31:54 11° SSW visible
01 Feb 3.2 02:20:01 10° SW 02:21:21 15° SSW 02:21:21 15° SSW visible
02 Feb 3.2 00:29:45 10° S 00:31:06 11° SSE 00:32:26 10° SE visible
02 Feb 2.8 02:08:32 10° SW 02:10:47 19° S 02:10:47 19° S visible
